Tracking 22124 objects as of 25-Jan-2021
HD Live streaming from Space Station
objects crossing your sky now

WESTFORD NEEDLES

Track WESTFORD NEEDLES now!
10-day predictions
WESTFORD NEEDLES is classified as:


NORAD ID: 2377
Int'l Code: 1963-014X
Perigee: 2,721.4 km
Apogee: 4,515.1 km
Inclination: 87.3 °
Period: 165.6 minutes
Semi major axis: 9989 km
RCS: 0.1884 m2 (medium)
Launch date: May 9, 1963
Source: United States (US)
Launch site: AIR FORCE WESTERN TEST RANGE (AFWTR)
aabbcc
Your satellite tracking list
Your tracking list is empty




NASA's NSSDC Master Catalog

Two Line Element Set (TLE):
1 02377U 63014X   21024.45304705  .00000041  00000-0  11753-1 0  9993
2 02377  87.2835 358.1977 0897814 222.2987 130.5161  8.69566115754867
Source of the keplerian elements: AFSPC